Printer-friendly version

IAU Minor Planet Center

Minor Planet Center

MPEC 1998-E08: 1998 EC3

The following Minor Planet Electronic Circular may be linked-to from your own Web pages, but must not otherwise be redistributed electronically.


Read MPEC 1998-E07 Read MPEC 1998-E09


M.P.E.C. 1998-E08                                Issued 1998 Mar. 3, 20:05 UT

     The Minor Planet Electronic Circulars contain information on unusual
         minor planets and routine data on comets.  They are published
   on behalf of Commission 20 of the International Astronomical Union by the
          Minor Planet Center, Smithsonian Astrophysical Observatory,
                          Cambridge, MA 02138, U.S.A.

             BMARSDEN@CFA.HARVARD.EDU or GWILLIAMS@CFA.HARVARD.EDU
                   URL http://cfa-www.harvard.edu/iau/mpc.html

                                   1998 EC3

Observations:
     J98E03C* C1998 03 01.59221 10 27 46.25 +19 41 41.8          17.5        411
     J98E03C  C1998 03 01.62592 10 27 43.18 +19 42 17.8                      411
     J98E03C  C1998 03 01.63952 10 27 42.01 +19 42 33.1                      411
     J98E03C  C1998 03 01.65955 10 27 40.18 +19 42 54.8                      411
     J98E03C  C1998 03 01.74286 10 27 33.0  +19 44 23                        897
     J98E03C SC1998 03 01.75356 10 27 32.91 +19 44 33.5          16.9 V      046
     J98E03C  C1998 03 01.75892 10 27 31.6  +19 44 43                        897
     J98E03C SC1998 03 01.76064 10 27 32.36 +19 44 41.2                      046
     J98E03C  C1998 03 01.76455 10 27 31.98 +19 44 45.1                      557
     J98E03C  C1998 03 01.76686 10 27 31.80 +19 44 47.2          18.1 V      557
     J98E03C  C1998 03 01.76919 10 27 31.59 +19 44 49.4                      557
     J98E03C  C1998 03 01.78441 10 27 30.27 +19 45 06.5                      557
     J98E03C  C1998 03 01.79089 10 27 29.69 +19 45 14.0                      557
     J98E03C  C1998 03 01.81527 10 27 27.55 +19 45 40.8          17.7 R      046
     J98E03C  C1998 03 01.81595 10 27 26.57 +19 45 42.7          17.9        327
     J98E03C  C1998 03 01.81873 10 27 27.23 +19 45 44.4                      046
     J98E03C  C1998 03 01.82054 10 27 26.17 +19 45 47.8          17.8        327
     J98E03C  C1998 03 01.82159 10 27 27.00 +19 45 47.4                      046
     J98E03C  C1998 03 01.82522 10 27 25.75 +19 45 52.7          17.8        327
     J98E03C  C1998 03 01.82616 10 27 26.59 +19 45 52.6                      046
     J98E03C  C1998 03 01.92135 10 27 18.25 +19 47 37.3                      587
     J98E03C  C1998 03 01.92784 10 27 17.64 +19 47 44.1                      587
     J98E03C  C1998 03 02.38832 10 26 37.48 +19 56 05.3          18.0 V      691
     J98E03C  C1998 03 02.39259 10 26 37.10 +19 56 09.9          18.1 V      691
     J98E03C  C1998 03 02.39661 10 26 36.74 +19 56 14.1          18.0 V      691
     J98E03C  C1998 03 02.47678 10 26 30.78 +19 57 40.1                      411
     J98E03C  C1998 03 02.48703 10 26 29.86 +19 57 51.4                      411
     J98E03C  C1998 03 02.49045 10 26 29.57 +19 57 54.8                      411
     J98E03C  C1998 03 02.49341 10 26 29.36 +19 57 58.1          17.7 V      867
     J98E03C  C1998 03 02.49475 10 26 29.22 +19 57 59.3                      355
     J98E03C  C1998 03 02.49529 10 26 29.00 +19 58 12.9          17.8 R      422
     J98E03C  C1998 03 02.49700 10 26 28.89 +19 58 15.2          17.2 R      422
     J98E03C  C1998 03 02.49782 10 26 28.89 +19 58 03.9          17.5 V      402
     J98E03C  C1998 03 02.49841 10 26 28.88 +19 58 03.7                      355
     J98E03C  C1998 03 02.49862 10 26 28.88 +19 58 03.8                      867
     J98E03C  C1998 03 02.49872 10 26 28.74 +19 58 17.3          17.5 R      422
     J98E03C  C1998 03 02.50044 10 26 28.59 +19 58 19.1          17.4 R      422
     J98E03C  C1998 03 02.50060 10 26 28.65 +19 58 06.9                      402
     J98E03C  C1998 03 02.50216 10 26 28.39 +19 58 20.5          17.5 R      422
     J98E03C  C1998 03 02.50314 10 26 28.45 +19 58 09.4          16.3 V      355
     J98E03C  C1998 03 02.50338 10 26 28.38 +19 58 10.3                      402
     J98E03C  C1998 03 02.50661 10 26 28.16 +19 58 12.6                      867
     J98E03C  C1998 03 02.50780 10 26 28.09 +19 58 13.0          17.6 V      897
     J98E03C  C1998 03 02.51249 10 26 27.68 +19 58 19.3          17.2 V      367
     J98E03C  C1998 03 02.51314 10 26 27.57 +19 58 19.5                      897
     J98E03C  C1998 03 02.51355 10 26 27.56 +19 58 20.1                      867
     J98E03C  C1998 03 02.51667 10 26 27.30 +19 58 24.0                      367
     J98E03C  C1998 03 02.52008 10 26 26.96 +19 58 27.0                      897
     J98E03C  C1998 03 02.52082 10 26 26.95 +19 58 28.8                      367
     J98E03C  C1998 03 02.54580 10 26 24.65 +19 58 55.5          17.0 V      403
     J98E03C  C1998 03 02.55669 10 26 23.59 +19 59 07.1                      403
     J98E03C  C1998 03 02.56101 10 26 23.25 +19 59 12.5                      900
     J98E03C  C1998 03 02.56727 10 26 22.64 +19 59 18.6                      403
     J98E03C  C1998 03 02.57038 10 26 22.34 +19 59 22.4                      411
     J98E03C  C1998 03 02.57365 10 26 22.07 +19 59 26.2          17.4 V      900
     J98E03C  C1998 03 02.57857 10 26 21.64 +19 59 31.0                      411
     J98E03C  C1998 03 02.59288 10 26 20.40 +19 59 47.1          17.8 V      360
     J98E03C  C1998 03 02.59896 10 26 19.86 +19 59 53.6                      360
     J98E03C  C1998 03 02.61704 10 26 18.22 +20 00 13.8          16.9 V      864
     J98E03C  C1998 03 02.61875 10 26 18.05 +20 00 15.2                      360
     J98E03C  C1998 03 02.62606 10 26 17.57 +20 00 21.8          17.7        327
     J98E03C  C1998 03 02.62958 10 26 17.15 +20 00 27.2                      864
     J98E03C  C1998 03 02.63589 10 26 16.71 +20 00 32.6                      327
     J98E03C  C1998 03 02.63938 10 26 16.17 +20 00 36.8                      864
     J98E03C  C1998 03 02.64529 10 26 15.84 +20 00 42.7                      327
     J98E03C  C1998 03 02.81449 10 26 01.60 +20 03 44.1          17.5 V      104
     J98E03C  C1998 03 02.81725 10 26 01.36 +20 03 47.6                      104
     J98E03C  C1998 03 02.81944 10 26 01.18 +20 03 49.9                      104
     J98E03C  C1998 03 02.82720 10 26 00.49 +20 03 57.9                      104
     J98E03C  C1998 03 02.84350 10 25 59.04 +20 04 16.0          17.5 R      106
     J98E03C  C1998 03 02.86955 10 25 56.68 +20 04 44.1          17.4 R      106
     J98E03C  C1998 03 02.88313 10 25 55.45 +20 04 59.0          17.6 R      106
     J98E03C  C1998 03 03.33828 10 25 15.42 +20 13 14.4                      711
     J98E03C  C1998 03 03.34558 10 25 14.74 +20 13 21.5                      711
     J98E03C  C1998 03 03.43462 10 25 07.86 +20 14 56.4          17.5 V      402
     J98E03C  C1998 03 03.43670 10 25 07.71 +20 14 58.8                      402
     J98E03C  C1998 03 03.43878 10 25 07.56 +20 15 01.5                      402
     J98E03C  C1998 03 03.49472 10 25 02.54 +20 16 00.8                      411
     J98E03C  C1998 03 03.49877 10 25 02.18 +20 16 05.4                      411
     J98E03C  C1998 03 03.50553 10 25 01.54 +20 16 12.2                      411
     J98E03C  C1998 03 03.51293 10 25 00.88 +20 16 21.0          16.7 V      355
     J98E03C  C1998 03 03.51762 10 25 00.49 +20 16 26.9                      355
     J98E03C  C1998 03 03.53818 10 24 58.57 +20 16 48.7          17.4 V      367
     J98E03C  C1998 03 03.54235 10 24 58.14 +20 16 53.5                      367

Observer details:
046 Klet.  Observers J. Ticha, M. Tichy.  Measurer M. Tichy.  0.57-m f/5.2
    reflector + CCD.
104 San Marcello Pistoiese.  Observers L. Tesi, A. Boattini.  Measurers
    A. Boattini, G. Forti, L. Tesi.  0.40-m f/5 reflector + CCD.
106 Crni Vrh.  Observers H. Mikuz, B. Dintinjana, J. Skvarc.  0.36-m f/6.7
    Schmidt-Cassegrain + CCD.
327 Peking Observatory, Xinglong Station.  Observers R. Chen, X. Y. Li, J. Zhu.
    Measurers J. Zhu, X. M. Teng, X. Y. Li.  0.6-m Schmidt + CCD.
355 Hadano.  Observer A. Asami.  0.2-m f/4.0 reflector + CCD.
360 Kuma Kogen.  Observer A. Nakamura.  0.60-m f/6.0 Ritchey-Chretien + CCD.
367 Yatsuka.  Observer H. Abe.  0.26-m f/6.0 reflector + CCD.
402 Dynic Astronomical Observatory.  Observer A. Sugie.  0.60-m f/3.7 reflector
    + CCD.
403 Kani.  Observer T. Mizuno.  Measurer T. Furuta.  0.20-m f/4.0 hyperboloid
    astrocamera.
411 Oizumi.  Observer T. Kobayashi.  0.41-m f/4.3 reflector + CCD.
422 Loomberah.  Observer G. J. Garradd.  0.25-m f/4.1 reflector + CCD.
557 Ondrejov.  Observer P. Pravec.  0.65-m f/3.6 reflector + CCD.
587 Sormano.  Observers F. Manca, G. Ventre.  0.5-m reflector + CCD.
691 Steward Observatory, Kitt Peak.  Observer J. Larsen.  0.9-m Spacewatch
    telescope.
711 McDonald Observatory.  Observer P. J. Shelus.  0.76-m reflector + CCD.
864 Kumamoto.  Observer 0.41-m f/5.0 reflector + CCD.  Observer J. Kobayashi.
    Measurer K. Kinoshita.
867 Saji Observatory.  Observers M. Yamanishi, A. Miyamoto, M. Aimoto,
    T. Oribe.  1.03-m f/4.8 reflector + CCD.
897 Chiyoda.  Observer T. Kojima.  0.25-m f/6.0 reflector + CCD.
900 Moriyama.  Observer Y. Ikari.  0.25-m f/6.3 reflector + CCD.

Orbital elements:
1998 EC3
Epoch 1998 Feb. 16.0 TT = JDT 2450860.5                 Williams
M 314.79453              (2000.0)            P               Q
n   0.31801987     Peri.  128.40849     -0.22001725     +0.96876449
a   2.1256898      Node   128.49427     -0.93436983     -0.17559406
e   0.5114568      Incl.    8.40495     -0.28025958     -0.17510591
P   3.10           H   16.5           G   0.15
From 82 observations 1998 Mar. 1-3.

